Weather in Temizhbekskiy

Russia / Stavropol Krai     45°26′44″N   41°02′18″E
temp.,
°C
wind,
m/s
gust,
m/s
humid.,
%
clouds,
%
prec.,
mm/h
press.,
hPa
HPBL,
m
13 may, thu
thu1300:00+12e46860 0.0 101389
03:00+11ese47830 0.0 1013108
06:00+10se35870 0.0 1013106
09:00+17sse23700 0.0 1013361
12:00+22e33585 0.0 1013757
15:00+24e4554100 0.0 10131057
18:00+22e4876100 0.0 1012230
21:00+18ese41181100 0.0 1013200
14 may, fri
fri1400:00+16ese411804 0.0 1012169
03:00+14ese47822 0.0 101194
06:00+15se34852 0.0 101266
09:00+22ese34699 0.0 1011297
12:00+27e45585 0.0 1010505
15:00+28ene46575 0.0 1010782
18:00+26e36755 0.0 1010172
21:00+20ese358698 0.0 101064
15 may, sat
sat1500:00+19ssw1184100 0.0 101011
03:00+17ssw339060 0.0 101132
06:00+18wsw359712 0.0 1012147
09:00+23wnw238251 0.0 1013562
12:00+26nw23697 0.0 1013998
15:00+27n33639 0.0 10121284
18:00+26ne247685 0.0 1011182
21:00+21ne2284100 0.0 101118
16 may, sun
sun1600:00+19ne348454 0.0 101061
03:00+17e34855 0.0 101049
06:00+18ene238493 0.0 100962
09:00+23ne236913 0.0 1008432
12:00+25ene455816 0.0 1007717
15:00+27e575799 0.0 10061048
18:00+25e377146 0.0 1005192
21:00+21e7155319 0.0 1004340
17 may, mon
mon1700:00+18e6135714 0.0 1004280
03:00+16e51157100 0.0 1004232
06:00+14ene3673100 0.0 1004119
09:00+20ene2266100 0.0 1005268
12:00+24nnw225949 0.0 1006813
15:00+25wnw4461100 0.0 10071280
18:00+20ese2282100 0.1 100756
21:00+17sw5995100 2.4 1010243